Location: Alpha Ridge Park
(39.3209°N, 76.9128°W)
Time: 00:43:53
(UTC-04:00)

S-56A Canister/Altair - Pass Details

Date: 23 May 2019
Orbit: 633 x 2499 km, 38.9° (Epoch: 17 June)

Event Time Altitude Azimuth Distance (km) Brightness Sun altitude
Rises 08:17:35 0° 285° (WNW) 4,746 11.1 26.8°
Reaches altitude 10° 08:20:31 10° 279° (W) 3,992 10.7 27.3°
Maximum altitude 08:30:54 46° 211° (SSW) 2,699 10.4 29.3°
Drops below altitude 10° 08:44:25 10° 145° (SE) 5,122 12.3 31.9°
Sets 08:48:47 0° 140° (SE) 6,167 12.6 32.8°
